CAPE
7 7 7 6 4 3 4 3 4 3 3 3 3 4 2 3 1 0 0 0 0 0 0 0 0 0 0 0 0 0 0 0 0 0 0 0 0 0 0 0 0 27 115 5 117
8 6 5 6 4 3 3 2 3 2 2 2 2 3 3 5 0 0 0 0 0 0 0 0 0 0 0 0 0 0 0 0 0 0 0 0 0 0 0 0 0 9 33 26 58
5 7 5 5 4 3 2 2 2 2 2 2 1 2 5 0 0 0 0 0 0 0 0 0 0 0 0 0 0 0 0 0 0 0 0 0 0 0 0 0 0 1 84 9 130
3 7 7 6 4 3 2 2 2 2 2 1 1 1 3 0 0 0 0 0 0 0 0 0 0 0 0 0 0 0 0 0 0 0 0 0 0 0 0 0 0 1 51 88 43
3 8 4 3 3 3 2 2 2 1 0 0 0 2 0 0 0 0 0 0 0 0 0 0 0 0 0 0 0 0 0 0 0 0 0 0 0 0 0 0 0 0 3 143 76
4 5 5 3 3 2 2 1 1 0 0 0 0 1 0 0 0 0 0 0 0 0 0 0 0 0 0 0 0 0 0 0 0 0 0 0 0 0 0 0 0 0 0 23 7
4 3 3 3 2 2 2 1 0 0 0 0 0 0 0 0 0 0 0 0 0 0 0 0 0 0 0 0 0 0 0 0 0 0 0 0 0 0 0 0 0 0 0 0 53
5 6 5 4 4 3 1 1 1 0 0 0 0 0 0 0 0 0 0 0 0 0 0 0 0 0 0 0 0 0 0 0 0 0 0 0 0 0 0 0 2 1 4 14 10
10 10 5 3 3 1 1 1 0 0 0 0 0 0 0 0 0 0 0 0 0 0 0 0 0 0 0 0 0 0 0 0 0 0 0 0 0 0 0 0 0 2 19 14 55
7 4 9 5 1 2 1 0 0 0 0 0 0 0 0 0 0 0 0 0 0 0 0 0 0 0 0 0 0 0 0 0 0 0 0 0 0 0 0 0 0 0 0 12 48
10 10 5 9 5 1 0 0 0 0 0 0 0 0 0 0 0 0 0 0 0 0 0 0 0 0 0 0 0 0 0 0 0 0 0 0 0 0 0 0 0 0 0 0 0
4 8 11 8 2 1 0 0 0 0 0 0 0 0 0 0 0 0 0 0 0 0 0 0 0 0 0 0 0 0 0 0 0 0 0 0 0 0 0 0 0 0 0 0 0
5 8 8 5 1 0 0 0 0 0 0 0 0 0 0 0 0 0 0 0 0 0 0 0 0 0 0 0 0 0 0 0 0 0 0 0 0 0 0 0 0 0 1 0 0
4 5 6 2 0 0 0 0 0 0 0 0 0 0 0 0 0 0 0 0 0 0 0 0 0 0 0 0 0 0 0 0 0 0 0 0 0 0 0 0 0 0 0 0 0
3 6 4 3 0 0 0 0 0 0 3 0 0 0 0 0 0 0 0 0 0 0 0 0 0 1 3 4 4 5 6 1 0 2 1 0 0 0 0 0 0 0 0 0 0
2 5 3 0 0 0 0 0 0 4 7 0 0 0 0 0 0 0 0 3 13 6 4 17 19 23 62 13 21 21 17 15 3 2 26 0 3 0 0 0 0 13 21 1 0
0 1 1 0 0 0 0 0 5 19 0 0 0 0 0 0 2 1 10 19 25 27 35 49 40 45 76 60 52 67 37 26 27 32 4 0 19 2 0 0 0 7 0 0 4
0 0 0 0 0 0 0 0 12 15 12 0 0 0 0 13 5 17 18 27 21 2 7 43 49 55 31 30 1 3 10 34 16 39 14 2 18 0 0 11 3 0 8 0 2
0 0 0 0 0 0 0 9 5 3 0 0 0 10 16 13 12 17 46 41 20 3 16 32 50 74 46 6 15 161 114 139 119 55 33 34 0 2 0 0 0 0 9 21 14
0 0 10 0 0 0 4 1 0 1 0 0 2 22 31 28 39 42 44 31 32 29 54 53 42 51 7 24 56 88 102 129 213 51 7 12 16 38 1 1 0 3 60 65 10
0 13 0 0 0 1 15 10 1 0 0 0 17 31 29 33 50 45 19 19 37 56 39 80 45 29 68 108 148 296 152 66 123 119 108 77 17 1 204 54 29 31 123 66 48
0 7 0 0 0 12 26 6 0 0 0 14 23 18 23 36 30 19 20 50 21 2 1 56 19 84 44 20 73 18 209 173 186 45 2 11 4 6 1 0 0 40 35 204 573
0 0 0 0 1 12 7 13 8 2 9 15 18 30 39 30 16 9 17 17 11 0 11 24 14 50 6 37 106 178 99 10 1 123 65 93 2 21 0 0 0 0 3 0 774
2 0 9 0 8 12 1 0 17 12 6 2 9 18 26 27 29 17 14 15 0 0 0 12 13 26 30 11 8 2 16 13 19 152 181 29 5 6 0 3 0 0 0 0 1027
18 0 2 0 0 0 1 1 18 16 18 16 17 29 26 22 11 4 9 4 6 16 4 9 39 15 6 4 26 36 0 19 14 56 113 0 0 9 0 0 0 0 0 0 1068
7 10 0 0 0 5 2 4 2 3 0 0 21 15 19 24 17 8 14 12 72 33 20 22 6 18 27 23 29 32 54 17 0 71 15 4 8 0 40 0 0 0 0 0 75
18 15 16 0 6 17 5 0 0 3 0 1 4 7 10 1 27 11 7 7 20 5 9 4 14 54 3 11 39 56 20 13 0 1 14 20 40 21 2 0 22 5 3 0 0
CIN
0 0 0 0 0 0 0 0 0 0 0 0 0 0 0 0 0 0 0 0 0 0 0 0 0 0 0 0 0 0 0 0 0 0 0 0 0 0 0 0 0 -11 -17 -14 -4
0 0 0 0 0 0 0 0 0 0 0 0 0 0 0 0 0 0 0 0 0 0 0 0 0 0 0 0 0 0 0 0 0 0 0 0 0 0 0 0 0 -7 -67 -44 -25
0 0 0 0 0 0 0 0 0 0 0 0 0 0 0 0 0 0 0 0 0 0 0 0 0 0 0 0 0 0 0 0 0 0 0 0 0 0 0 0 0 0 -12 -49 -17
0 0 0 0 0 0 0 0 0 0 0 0 0 0 0 0 0 0 0 0 0 0 0 0 0 0 0 0 0 0 0 0 0 0 -1 0 -1 -1 0 0 0 0 -5 -11 -33
0 0 0 0 0 0 0 0 0 0 0 0 0 0 0 0 0 0 0 0 0 0 0 0 0 0 0 0 0 0 0 0 0 0 0 0 0 0 0 0 0 0 -2 -7 -51
0 0 0 0 0 0 0 0 0 0 0 0 0 0 0 0 0 0 0 0 0 0 0 0 0 0 0 0 0 0 0 0 0 0 0 0 0 0 0 0 0 0 0 -19 -55
0 0 0 0 0 0 0 0 0 0 0 0 0 0 0 0 0 0 0 0 0 0 0 0 0 0 0 0 0 0 0 0 0 0 0 0 0 0 0 0 0 0 0 -20 -10
0 0 0 0 0 0 0 0 0 0 0 0 0 0 0 0 0 0 0 0 0 0 0 0 0 0 0 0 0 0 0 0 0 0 0 0 0 0 0 0 -115 -89 -39 -65 -25
0 0 0 0 0 0 0 0 0 0 0 0 0 0 0 0 0 0 0 0 0 0 0 0 0 0 0 0 0 0 0 0 0 0 0 0 0 0 0 0 0 -71 -86 -66 -39
0 0 0 0 0 0 0 0 0 0 0 0 0 0 0 0 0 0 0 0 0 0 0 0 0 0 0 0 0 0 0 0 0 0 0 0 0 0 0 0 0 0 0 -62 -28
0 0 0 0 0 0 0 0 0 0 0 0 0 0 0 0 0 0 0 0 0 0 0 0 0 0 0 0 0 0 0 0 0 0 0 0 0 0 0 0 0 0 0 0 0
0 0 0 0 0 0 0 0 0 0 0 0 0 0 0 0 0 0 0 0 0 0 0 0 0 0 0 0 0 0 0 0 0 0 0 0 0 0 0 0 0 0 0 0 0
0 0 0 0 0 0 0 0 0 0 0 0 0 0 0 0 0 0 0 0 0 0 0 0 0 0 0 0 0 0 0 0 0 0 0 0 0 0 0 0 0 0 -2 0 0
0 0 0 0 0 0 0 0 0 0 0 0 0 0 0 0 0 0 0 0 0 0 0 0 0 0 0 0 0 0 0 0 0 0 0 0 0 0 0 0 0 0 0 0 0
0 0 0 0 0 0 0 0 0 0 -4 0 0 0 0 0 0 0 0 0 0 0 0 0 0 -1 0 -1 -1 -1 -1 -1 -1 0 0 0 0 0 0 0 0 0 0 0 0
0 0 0 0 0 0 0 0 0 0 -1 0 0 0 0 0 -1 0 -1 -2 -1 -1 -1 -1 -12 -1 -4 -2 -3 -1 -1 -1 0 0 0 0 0 0 0 0 0 0 -4 -1 0
0 0 0 0 0 0 0 0 0 0 0 0 0 0 0 0 -2 -1 -1 0 0 0 -1 -3 -2 -2 -16 -17 -29 -36 0 0 0 0 0 0 0 0 0 0 0 -2 0 -3 -6
0 0 0 0 0 0 0 0 0 0 0 0 0 0 0 -2 -1 0 -1 0 -3 -2 0 0 0 -6 -33 -8 -39 -118 -45 -5 -1 0 0 -4 -1 0 0 -1 -6 -8 -8 -2 -10
0 0 0 0 0 0 0 0 -4 0 0 0 0 0 -1 -3 -6 -1 -1 0 -2 -4 -1 0 0 -50 -31 -22 -10 -10 -1 -11 -11 -4 -3 -8 0 -1 0 0 0 -5 -2 -3 -22
0 0 0 0 0 0 0 -1 -1 -1 0 0 0 -1 0 0 0 0 -1 -1 0 -1 -1 -1 -3 -1 -1 -2 -1 -1 -3 -2 -4 0 -1 -3 -3 -1 -3 -1 0 -25 -1 -3 -18
0 -2 0 0 0 0 -14 0 0 0 0 0 0 0 -1 -1 0 -1 0 -1 -1 -5 -5 -1 -1 -17 -3 0 -2 0 -7 -81 -24 -2 -1 -1 -11 -2 -12 -144 -61 -30 -3 -5 -3
0 -1 0 0 0 -7 -2 0 0 0 0 0 -1 0 -1 0 0 0 0 -1 -10 -3 0 -4 -2 -1 -25 -17 -3 -13 -1 -82 -7 -22 -25 -2 -143 -16 -5 0 0 -35 -45 -2 -2
0 -1 -1 0 0 0 0 0 -1 -1 0 -1 -1 0 0 0 0 0 0 -1 -13 -38 -2 -10 -1 0 0 -3 -66 -17 -19 -4 -8 -2 -13 0 -6 -5 0 0 0 0 -101 0 -9
0 0 0 0 0 0 0 0 0 -3 -1 0 0 0 0 0 -1 0 0 0 0 0 0 -1 0 0 0 0 -12 -7 -26 -61 -5 -1 -1 -2 -2 -10 0 0 0 0 0 0 0
-1 -1 0 0 0 0 0 0 -16 -5 -1 -1 0 0 0 0 0 0 0 0 0 -4 0 0 0 -1 0 -8 0 -1 0 -23 -23 -6 0 0 0 -42 -4 0 0 0 -4 0 -7
0 0 0 0 0 0 -6 0 0 0 0 0 0 0 0 0 0 0 0 -1 0 0 -3 -5 -4 0 0 0 -28 -13 -3 -27 -1 -25 -8 -6 -2 0 -63 0 0 0 0 0 -9
0 0 0 0 0 0 0 0 0 0 0 0 0 0 0 -1 -1 0 -5 -16 -1 -2 0 0 0 0 -5 0 -2 -1 -16 -4 0 -2 -1 0 0 0 -5 0 -25 -2 -2 0 0
Wind_Speed
17 17 17 17 18 18 18 18 18 18 18 18 19 19 19 18 21 20 15 4 6 11 14 14 14 14 15 18 21 21 16 18 24 22 21 18 19 15 16 15 20 14 6 10 11
17 18 18 18 18 19 19 19 19 19 18 19 19 18 18 17 19 17 6 1 7 10 10 14 13 16 16 15 15 20 18 28 23 19 20 19 19 20 17 19 18 10 8 6 10
17 17 17 18 18 18 19 19 19 18 18 19 19 19 17 16 11 6 8 0 7 9 13 15 16 15 20 20 21 22 27 25 26 24 21 20 23 17 15 19 21 17 14 8 18
17 17 17 18 18 19 19 19 18 18 18 19 19 19 18 12 3 9 7 7 12 13 13 12 14 17 19 23 22 27 30 28 29 28 26 25 23 25 19 22 24 18 16 17 12
17 17 17 18 18 19 19 19 18 19 20 20 17 15 12 9 1 12 11 13 14 13 12 12 14 15 21 20 22 31 29 29 27 25 25 27 29 28 19 22 23 22 17 16 15
18 18 18 18 19 20 20 19 18 19 19 18 16 13 10 14 5 3 5 9 9 9 12 12 12 14 20 21 23 24 28 29 29 26 22 27 28 25 25 20 23 23 20 8 7
18 19 20 20 20 21 21 19 18 18 20 18 13 9 11 12 2 6 10 10 10 4 9 12 14 11 15 17 23 22 27 25 28 26 28 23 26 32 24 21 22 23 23 20 16
19 18 20 20 21 21 21 19 20 21 19 14 9 9 9 6 6 7 10 11 8 11 11 8 11 14 15 16 24 23 20 22 27 27 29 21 30 28 26 22 23 24 22 22 20
20 20 22 22 22 22 22 21 21 20 12 9 8 10 12 7 7 11 10 10 11 12 10 9 7 13 15 15 16 18 21 24 25 25 26 27 32 27 25 23 20 21 21 22 21
21 23 22 23 24 22 22 26 15 11 9 10 10 10 11 4 10 10 9 8 12 11 12 12 12 14 13 13 18 17 22 23 27 26 26 27 30 27 25 23 25 22 22 22 22
22 22 23 22 22 21 16 9 5 7 12 14 13 13 12 6 8 7 5 8 13 9 15 12 11 14 17 17 20 19 22 27 28 27 25 24 26 28 25 25 24 20 19 24 24
23 25 24 22 21 19 11 8 8 9 12 15 14 12 10 8 8 11 3 11 13 13 16 13 15 17 16 18 20 20 21 24 25 25 23 27 28 28 22 23 22 22 23 21 22
23 24 24 22 19 11 12 7 7 10 8 10 4 6 7 5 11 12 6 11 13 15 15 16 18 19 18 20 18 18 21 21 24 22 24 25 26 28 26 20 17 20 19 23 22
24 24 24 21 7 7 1 8 9 8 7 8 8 3 5 5 8 2 12 6 12 17 19 15 18 20 20 22 21 21 21 21 21 20 17 21 18 22 21 24 21 22 20 14 13
26 26 23 10 11 8 10 9 9 5 6 5 7 7 5 9 13 5 2 7 13 17 16 17 19 20 22 22 21 23 21 20 22 21 22 22 17 18 23 23 22 21 21 17 16
27 25 21 6 7 7 8 8 6 7 2 4 2 6 10 11 16 5 11 12 17 18 18 19 19 19 20 21 20 28 20 22 18 17 18 23 20 21 19 23 24 18 21 23 25
29 25 15 10 7 9 9 8 7 8 5 2 6 11 13 19 7 9 8 13 12 12 14 18 15 11 6 11 19 28 17 13 16 14 17 22 22 18 21 24 24 22 18 20 16
32 28 5 8 11 8 8 9 7 6 8 15 11 17 19 14 6 8 13 14 11 10 13 14 17 9 13 20 10 26 10 10 19 17 17 21 15 17 19 22 25 23 24 16 14
32 4 4 9 3 5 8 6 4 10 13 11 14 15 12 10 12 13 14 13 8 7 12 15 19 9 17 20 15 20 11 20 12 19 15 20 27 21 22 23 26 24 23 12 13
11 8 4 6 0 4 6 10 14 8 11 12 14 11 15 18 16 16 15 10 13 16 15 15 19 19 22 20 18 15 9 13 5 12 17 17 22 12 20 19 24 24 19 18 6
5 5 6 4 2 6 6 12 12 15 11 7 13 16 15 16 17 18 15 20 10 18 18 20 15 19 20 19 16 11 3 3 12 7 5 9 13 12 17 22 22 22 15 7 11
7 3 5 3 6 3 7 11 9 9 7 13 8 10 10 16 16 18 19 16 13 11 13 14 8 18 22 25 25 17 14 12 7 10 9 13 22 15 24 29 30 25 7 6 8
8 6 6 2 2 6 11 17 12 7 9 8 8 12 12 16 14 9 18 18 13 10 10 9 7 13 15 19 9 9 6 5 10 14 13 10 12 17 26 32 35 32 12 8 15
7 4 3 4 6 9 12 13 13 6 8 5 8 10 13 16 13 16 21 19 6 7 9 7 11 19 18 22 2 9 15 24 17 8 18 13 15 9 17 18 27 27 23 12 8
5 5 6 6 9 13 9 14 13 16 11 3 11 16 14 16 19 19 16 24 20 5 7 4 9 18 25 26 24 25 19 24 26 22 19 14 18 5 5 13 24 32 30 15 7
7 8 9 13 10 11 5 10 12 13 15 16 16 17 17 19 19 24 23 19 20 14 8 6 6 13 22 23 22 25 26 31 31 31 18 17 15 9 15 18 25 23 18 13 8
4 4 4 9 10 10 9 10 12 16 10 14 18 19 19 19 23 22 22 23 20 5 3 2 4 4 13 18 14 17 24 26 26 21 19 15 11 9 8 18 19 10 12 11 13
Wind_Direction
346 343 341 338 336 333 331 329 326 324 321 317 317 316 314 314 306 285 242 35 335 324 323 290 267 252 247 252 252 244 241 246 248 254 263 275 281 286 279 278 243 262 95 163 172
342 340 338 337 333 331 329 327 325 323 321 317 315 313 314 320 302 277 102 248 333 335 306 290 264 236 231 242 229 238 244 239 244 250 273 280 271 277 256 255 258 227 93 68 106
340 338 335 332 329 326 324 323 322 320 318 316 313 311 314 315 283 112 168 1 288 286 264 268 280 274 267 231 234 228 247 248 251 250 248 266 284 288 278 270 254 238 176 198 180
339 336 333 328 325 322 321 319 317 315 312 310 310 310 311 286 341 104 170 223 247 261 274 263 256 248 251 254 238 240 242 246 256 266 282 285 279 262 244 257 267 264 242 184 208
339 336 332 327 322 320 317 314 314 313 311 310 309 312 308 231 331 149 190 226 250 268 279 278 269 265 255 253 253 251 247 246 247 252 267 276 272 273 242 256 274 277 267 225 192
336 335 330 325 321 318 315 312 309 309 305 306 307 307 260 285 20 9 276 272 270 315 308 299 280 273 281 281 263 259 261 260 257 253 240 251 264 263 261 249 264 275 266 221 245
335 333 329 324 320 316 312 309 306 303 300 298 297 277 271 271 329 320 278 325 305 284 291 296 316 303 300 289 245 276 274 271 264 260 253 253 247 251 256 253 253 261 270 272 216
334 329 327 323 318 313 308 305 304 302 297 284 277 269 263 92 335 284 333 313 316 311 288 256 284 282 279 279 286 278 281 258 246 253 255 262 252 244 253 240 248 259 264 266 260
336 331 328 324 319 313 309 304 299 295 272 267 250 222 281 121 235 4 322 309 312 296 295 270 250 275 282 262 260 247 257 258 265 246 246 241 259 247 243 246 230 245 257 264 262
336 334 328 323 318 312 313 294 283 299 230 232 252 267 255 297 357 318 281 299 303 293 282 236 235 255 247 240 249 264 245 246 251 258 265 236 240 251 250 244 239 236 248 261 256
335 333 327 322 313 311 322 304 222 197 236 272 298 281 293 342 321 299 331 305 293 268 287 290 264 251 253 253 259 269 265 272 279 289 291 255 254 244 238 248 234 237 232 244 253
333 329 326 320 312 309 290 295 29 310 301 279 270 260 275 274 283 294 309 301 315 304 306 283 265 258 265 265 267 275 286 282 287 289 285 280 281 282 245 240 241 231 229 238 249
329 326 326 322 316 286 255 33 323 323 285 302 194 238 242 321 279 295 327 300 293 303 302 297 295 301 299 292 281 264 261 278 285 291 287 285 274 268 273 272 254 267 243 224 235
328 326 326 323 293 304 281 352 328 3 272 129 186 184 227 262 271 33 266 309 293 298 298 294 294 287 277 267 276 279 281 274 282 287 274 268 273 261 263 257 260 267 255 258 251
328 328 325 310 314 311 357 337 347 255 273 147 124 106 246 245 275 266 152 274 274 284 287 285 289 285 284 280 284 280 285 279 281 281 275 263 258 265 266 256 244 239 249 248 261
326 327 329 227 228 279 323 332 260 237 254 157 270 256 277 301 293 312 273 243 261 262 262 277 287 280 319 292 284 291 278 275 271 275 260 262 255 258 256 258 267 258 234 227 227
324 322 312 307 317 356 330 277 246 272 133 61 341 323 316 287 291 306 299 294 306 310 302 316 318 18 310 314 314 304 260 262 257 248 253 255 256 259 256 268 267 265 273 277 262
326 316 244 253 300 356 303 273 266 311 317 1 332 316 277 288 309 320 309 298 302 332 322 316 309 347 339 299 301 282 282 295 276 273 287 296 286 283 282 271 269 273 254 283 288
318 274 223 231 286 307 284 262 277 353 351 331 312 300 315 344 335 321 314 315 337 326 307 311 299 226 227 273 204 271 265 231 314 282 272 280 277 258 275 264 269 258 256 263 264
315 292 267 132 135 290 269 273 292 11 353 331 304 292 318 335 334 321 316 327 326 330 318 299 301 297 288 286 268 262 306 310 259 265 266 254 271 271 266 241 256 250 238 234 236
249 250 87 316 302 251 268 281 342 356 326 314 311 310 322 329 317 310 314 311 327 335 337 314 296 307 312 280 262 255 220 307 314 201 258 289 273 217 354 340 303 251 239 165 239
294 299 106 282 263 246 258 338 311 290 311 289 328 306 308 310 307 306 298 299 337 336 328 342 301 291 291 290 288 255 233 191 222 249 247 278 275 307 9 345 337 286 237 279 199
300 296 115 355 324 332 324 337 327 348 330 320 312 320 317 305 302 292 296 296 17 358 357 355 283 304 292 284 4 344 356 221 282 292 253 262 278 343 19 339 330 310 330 26 254
281 312 152 246 270 344 340 314 320 313 291 346 302 286 287 285 294 303 302 310 24 300 266 226 247 255 267 279 266 261 301 295 281 234 252 274 288 332 7 322 302 305 296 319 10
270 41 23 310 340 316 329 310 300 322 343 314 305 299 304 319 313 304 300 304 294 290 210 230 255 256 261 268 268 274 244 272 275 272 275 279 289 17 241 275 273 272 287 330 48
344 347 356 296 308 286 273 310 317 329 336 310 310 334 320 301 291 296 299 299 300 307 259 201 255 267 271 270 263 261 267 230 244 248 273 268 272 248 173 231 266 272 291 315 1
17 351 325 307 299 303 339 329 306 307 308 310 325 310 295 293 305 308 302 286 275 17 218 302 293 259 276 270 281 272 254 253 262 263 268 269 286 297 222 243 254 279 289 297 300